Location: Tamazert
(32.6352°N, 5.2072°W)
Time: 01:49:38
(UTC+00:00)

Altair - Pass Details

Date: 05 October 2022
Orbit: 1501 x 1682 km, 47.2° (Epoch: 05 December)

Event Time Altitude Azimuth Distance (km) Brightness Sun altitude
Exits shadow 01:47:08 15° 99° (E) 3,380 9.4 -53.9°
Drops below altitude 10° 01:49:46 10° 84° (E) 3,813 9.9 -53.5°
Sets 01:54:12 0° 68° (ENE) 4,836 10.6 -52.8°
